| time (UTC) | temp F | wind direction | speed MPH | gust MPH | rain 1hr in | rain 24hr in | rain mn in | humidity % | barometer mb |
| 20260509055119 | 37 | 178 | 0.0 | 0.0 | 0.00 | 0.00 | 0.00 | 83 | 1012.6 |
| 20260509054616 | 37 | 114 | 0.0 | 0.0 | 0.00 | 0.00 | 0.00 | 83 | 1012.6 |
| 20260509054114 | 37 | 106 | 0.0 | 0.0 | 0.00 | 0.00 | 0.00 | 83 | 1012.5 |
| 20260509053613 | 37 | 100 | 0.0 | 0.0 | 0.00 | 0.00 | 0.00 | 82 | 1012.5 |
| 20260509053109 | 37 | 124 | 0.0 | 0.0 | 0.00 | 0.00 | 0.00 | 82 | 1012.4 |
| 20260509052607 | 38 | 115 | 0.0 | 0.0 | 0.00 | 0.00 | 0.00 | 82 | 1012.5 |
| 20260509052104 | 38 | 115 | 0.0 | 0.0 | 0.00 | 0.00 | 0.00 | 81 | 1012.4 |
| 20260509051602 | 38 | 114 | 0.0 | 0.0 | 0.00 | 0.00 | 0.00 | 80 | 1012.3 |
| 20260509051059 | 38 | 117 | 0.0 | 0.0 | 0.00 | 0.00 | 0.00 | 80 | 1012.3 |
| 20260509050556 | 38 | 142 | 0.0 | 0.0 | 0.00 | 0.00 | 0.00 | 80 | 1012.2 |
| 20260509050052 | 38 | 144 | 0.0 | 0.0 | 0.00 | 0.00 | 0.00 | 79 | 1012.3 |
| 20260509045550 | 39 | 117 | 0.0 | 0.0 | 0.00 | 0.00 | 0.00 | 79 | 1012.1 |
| 20260509045047 | 39 | 124 | 0.0 | 0.0 | 0.00 | 0.00 | 0.00 | 78 | 1012.2 |
| 20260509044544 | 39 | 109 | 0.0 | 0.0 | 0.00 | 0.00 | 0.00 | 78 | 1012.3 |
| 20260509044041 | 39 | 138 | 0.0 | 0.0 | 0.00 | 0.00 | 0.00 | 77 | 1012.4 |
| 20260509043538 | 40 | 113 | 0.0 | 0.0 | 0.00 | 0.00 | 0.00 | 76 | 1012.3 |
| 20260509043033 | 40 | 110 | 0.0 | 0.0 | 0.00 | 0.00 | 0.00 | 76 | 1012.2 |
| 20260509042530 | 40 | 117 | 0.0 | 0.0 | 0.00 | 0.00 | 0.00 | 76 | 1012.1 |
| 20260509042026 | 40 | 136 | 0.0 | 0.0 | 0.00 | 0.00 | 0.00 | 75 | 1012.0 |
| 20260509041523 | 40 | 116 | 0.0 | 0.0 | 0.00 | 0.00 | 0.00 | 75 | 1012.1 |
| 20260509041021 | 40 | 113 | 0.0 | 0.0 | 0.00 | 0.00 | 0.00 | 74 | 1012.2 |
| 20260509040519 | 41 | 116 | 0.0 | 0.0 | 0.00 | 0.00 | 0.00 | 74 | 1012.0 |
| 20260509040015 | 41 | 139 | 0.0 | 0.0 | 0.00 | 0.00 | 0.00 | 73 | 1012.0 |
| 20260509035512 | 41 | 108 | 0.0 | 0.0 | 0.00 | 0.00 | 0.00 | 73 | 1012.0 |
| 20260509035009 | 41 | 132 | 0.0 | 0.0 | 0.00 | 0.00 | 0.00 | 72 | 1012.0 |
| 20260509034507 | 41 | 176 | 0.0 | 0.0 | 0.00 | 0.00 | 0.00 | 72 | 1011.8 |
| 20260509034004 | 42 | 110 | 0.0 | 0.0 | 0.00 | 0.00 | 0.00 | 71 | 1011.9 |
| 20260509033500 | 42 | 111 | 0.0 | 0.0 | 0.00 | 0.00 | 0.00 | 71 | 1011.7 |
| 20260509032957 | 42 | 125 | 0.0 | 0.0 | 0.00 | 0.00 | 0.00 | 70 | 1011.8 |
| 20260509032454 | 43 | 144 | 0.0 | 0.0 | 0.00 | 0.00 | 0.00 | 69 | 1011.7 |
| 20260509031952 | 43 | 148 | 1.0 | 1.0 | 0.00 | 0.00 | 0.00 | 68 | 1011.8 |
| 20260509031449 | 44 | 116 | 0.0 | 0.0 | 0.00 | 0.00 | 0.00 | 67 | 1011.5 |
| 20260509030946 | 44 | 106 | 0.0 | 0.0 | 0.00 | 0.00 | 0.00 | 65 | 1011.5 |
| 20260509030444 | 44 | 134 | 0.0 | 0.0 | 0.00 | 0.00 | 0.00 | 64 | 1011.5 |
| 20260509025941 | 45 | 125 | 0.0 | 0.0 | 0.00 | 0.00 | 0.00 | 63 | 1011.4 |
| 20260509025437 | 45 | 115 | 0.0 | 0.0 | 0.00 | 0.00 | 0.00 | 63 | 1011.6 |
| 20260509024932 | 46 | 130 | 0.0 | 0.0 | 0.00 | 0.00 | 0.00 | 60 | 1011.3 |
| 20260509024428 | 46 | 130 | 0.0 | 0.0 | 0.00 | 0.00 | 0.00 | 60 | 1011.4 |
| 20260509023925 | 46 | 145 | 0.0 | 1.0 | 0.00 | 0.00 | 0.00 | 60 | 1011.4 |
| 20260509023423 | 47 | 132 | 0.0 | 0.0 | 0.00 | 0.00 | 0.00 | 58 | 1011.5 |
| 20260509022919 | 47 | 154 | 0.0 | 1.0 | 0.00 | 0.00 | 0.00 | 58 | 1011.2 |
| 20260509022417 | 47 | 141 | 0.0 | 0.0 | 0.00 | 0.00 | 0.00 | 58 | 1011.3 |
| 20260509021914 | 47 | 133 | 0.0 | 0.0 | 0.00 | 0.00 | 0.00 | 58 | 1011.4 |
| 20260509021411 | 47 | 123 | 0.0 | 0.0 | 0.00 | 0.00 | 0.00 | 58 | 1011.2 |
| 20260509020908 | 47 | 97 | 0.0 | 1.0 | 0.00 | 0.00 | 0.00 | 57 | 1011.1 |
| 20260509020406 | 47 | 127 | 0.0 | 0.0 | 0.00 | 0.00 | 0.00 | 58 | 1011.2 |
| 20260509015903 | 47 | 145 | 0.0 | 1.0 | 0.00 | 0.00 | 0.00 | 58 | 1010.8 |
| 20260509015402 | 47 | 173 | 0.0 | 1.0 | 0.00 | 0.00 | 0.00 | 57 | 1010.6 |
| 20260509014858 | 47 | 122 | 0.0 | 0.0 | 0.00 | 0.00 | 0.00 | 58 | 1010.6 |
| 20260509014355 | 47 | 142 | 0.0 | 0.0 | 0.00 | 0.00 | 0.00 | 57 | 1010.5 |
| 20260509013851 | 47 | 146 | 0.0 | 1.0 | 0.00 | 0.00 | 0.00 | 57 | 1010.8 |
| 20260509013348 | 48 | 140 | 0.0 | 1.0 | 0.00 | 0.00 | 0.00 | 55 | 1010.7 |
| 20260509012844 | 48 | 142 | 0.0 | 1.0 | 0.00 | 0.00 | 0.00 | 55 | 1010.5 |
| 20260509012340 | 48 | 144 | 0.0 | 0.0 | 0.00 | 0.00 | 0.00 | 54 | 1010.6 |
| 20260509011838 | 49 | 130 | 0.0 | 1.0 | 0.00 | 0.00 | 0.00 | 54 | 1010.4 |
| 20260509011335 | 49 | 167 | 0.0 | 1.0 | 0.00 | 0.00 | 0.00 | 52 | 1010.2 |
| 20260509010833 | 49 | 164 | 0.0 | 1.0 | 0.00 | 0.00 | 0.00 | 51 | 1009.9 |
| 20260509010330 | 50 | 162 | 0.0 | 1.0 | 0.00 | 0.00 | 0.00 | 51 | 1009.8 |
| 20260509005827 | 50 | 182 | 0.0 | 2.0 | 0.00 | 0.00 | 0.00 | 50 | 1009.9 |
| 20260509005325 | 50 | 157 | 0.0 | 1.0 | 0.00 | 0.00 | 0.00 | 50 | 1009.7 |
| 20260509004825 | 50 | 168 | 0.0 | 1.0 | 0.00 | 0.00 | 0.00 | 50 | 1009.6 |
| 20260509004322 | 51 | 174 | 0.0 | 2.0 | 0.00 | 0.00 | 0.00 | 48 | 1009.8 |
| 20260509003820 | 51 | 225 | 2.0 | 2.0 | 0.00 | 0.00 | 0.00 | 48 | 1009.7 |
| 20260509003317 | 51 | 312 | 1.0 | 3.0 | 0.00 | 0.00 | 0.00 | 48 | 1009.5 |
| 20260509002814 | 51 | 160 | 0.0 | 0.0 | 0.00 | 0.00 | 0.00 | 48 | 1009.5 |
| 20260509002312 | 51 | 280 | 3.0 | 4.0 | 0.00 | 0.00 | 0.00 | 46 | 1009.3 |
| 20260509001810 | 51 | 296 | 2.0 | 2.0 | 0.00 | 0.00 | 0.00 | 46 | 1009.4 |
| 20260509001305 | 51 | 168 | 0.0 | 3.0 | 0.00 | 0.00 | 0.00 | 46 | 1009.2 |
| 20260509000803 | 51 | 170 | 0.0 | 2.0 | 0.00 | 0.00 | 0.00 | 46 | 1009.3 |
| 20260509000300 | 52 | 195 | 1.0 | 2.0 | 0.00 | 0.00 | 0.00 | 44 | 1009.0 |
| 20260508235757 | 52 | 287 | 3.0 | 6.0 | 0.00 | 0.00 | 0.00 | 44 | 1009.2 |
| 20260508235254 | 52 | 171 | 1.0 | 3.0 | 0.00 | 0.00 | 0.00 | 43 | 1009.0 |
| 20260508234751 | 53 | 273 | 2.0 | 6.0 | 0.00 | 0.00 | 0.00 | 42 | 1008.9 |
| 20260508234247 | 53 | 248 | 2.0 | 8.0 | 0.00 | 0.00 | 0.00 | 42 | 1008.8 |
| 20260508233746 | 53 | 193 | 2.0 | 3.0 | 0.00 | 0.00 | 0.00 | 42 | 1008.5 |
| 20260508233245 | 54 | 176 | 0.0 | 3.0 | 0.00 | 0.00 | 0.00 | 40 | 1008.5 |
| 20260508232742 | 54 | 189 | 2.0 | 4.0 | 0.00 | 0.00 | 0.00 | 39 | 1008.5 |
| 20260508232238 | 55 | 240 | 4.0 | 6.0 | 0.00 | 0.00 | 0.00 | 37 | 1008.4 |
| 20260508231736 | 55 | 224 | 2.0 | 6.0 | 0.00 | 0.00 | 0.00 | 37 | 1008.3 |
| 20260508231232 | 56 | 288 | 2.0 | 3.0 | 0.00 | 0.00 | 0.00 | 37 | 1008.3 |
| 20260508230729 | 57 | 280 | 4.0 | 8.0 | 0.00 | 0.00 | 0.00 | 35 | 1008.3 |
| 20260508230225 | 57 | 302 | 3.0 | 4.0 | 0.00 | 0.00 | 0.00 | 35 | 1008.2 |
| 20260508225724 | 58 | 290 | 0.0 | 2.0 | 0.00 | 0.00 | 0.00 | 35 | 1008.0 |
| 20260508225220 | 57 | 240 | 1.0 | 1.0 | 0.00 | 0.00 | 0.00 | 35 | 1008.0 |
| 20260508224718 | 55 | 177 | 1.0 | 1.0 | 0.00 | 0.00 | 0.00 | 38 | 1008.1 |
| 20260508224215 | 55 | 259 | 2.0 | 3.0 | 0.00 | 0.00 | 0.00 | 36 | 1007.9 |
| 20260508223712 | 55 | 106 | 0.0 | 3.0 | 0.00 | 0.00 | 0.00 | 38 | 1008.0 |
| 20260508223209 | 56 | 175 | 2.0 | 6.0 | 0.00 | 0.00 | 0.00 | 35 | 1008.0 |
| 20260508222707 | 57 | 163 | 0.0 | 3.0 | 0.00 | 0.00 | 0.00 | 35 | 1008.1 |
| 20260508222204 | 57 | 125 | 0.0 | 4.0 | 0.00 | 0.00 | 0.00 | 34 | 1007.8 |
| 20260508221700 | 59 | 168 | 1.0 | 3.0 | 0.00 | 0.00 | 0.00 | 33 | 1007.9 |
| 20260508221156 | 59 | 358 | 4.0 | 8.0 | 0.00 | 0.00 | 0.00 | 31 | 1007.7 |
| 20260508220653 | 58 | 290 | 2.0 | 4.0 | 0.00 | 0.00 | 0.00 | 32 | 1008.0 |
| 20260508220149 | 57 | 256 | 2.0 | 3.0 | 0.00 | 0.00 | 0.00 | 33 | 1007.6 |
| 20260508215646 | 57 | 184 | 0.0 | 0.0 | 0.00 | 0.00 | 0.00 | 33 | 1007.8 |
| 20260508215142 | 57 | 100 | 2.0 | 6.0 | 0.00 | 0.00 | 0.00 | 32 | 1007.8 |
| 20260508214639 | 58 | 197 | 2.0 | 3.0 | 0.00 | 0.00 | 0.00 | 34 | 1007.8 |
| 20260508214137 | 58 | 323 | 3.0 | 6.0 | 0.00 | 0.00 | 0.00 | 31 | 1007.7 |
| 20260508213633 | 58 | 304 | 5.0 | 7.0 | 0.00 | 0.00 | 0.00 | 32 | 1007.6 |
| 20260508213129 | 57 | 267 | 3.0 | 6.0 | 0.00 | 0.00 | 0.00 | 32 | 1007.5 |
| 20260508212626 | 57 | 208 | 3.0 | 7.0 | 0.00 | 0.00 | 0.00 | 32 | 1007.5 |
| 20260508212123 | 57 | 297 | 2.0 | 7.0 | 0.00 | 0.00 | 0.00 | 32 | 1007.7 |
| 20260508211618 | 57 | 293 | 2.0 | 3.0 | 0.00 | 0.00 | 0.00 | 31 | 1007.7 |
| 20260508211115 | 59 | 11 | 2.0 | 4.0 | 0.00 | 0.00 | 0.00 | 31 | 1007.4 |
| 20260508210611 | 59 | 268 | 3.0 | 7.0 | 0.00 | 0.00 | 0.00 | 31 | 1007.5 |
| 20260508210109 | 58 | 281 | 5.0 | 6.0 | 0.00 | 0.00 | 0.00 | 31 | 1007.3 |
| 20260508205606 | 58 | 329 | 4.0 | 8.0 | 0.00 | 0.00 | 0.00 | 30 | 1007.4 |
| 20260508205102 | 58 | 304 | 6.0 | 10.0 | 0.00 | 0.00 | 0.00 | 31 | 1007.4 |
| 20260508204558 | 58 | 321 | 0.0 | 3.0 | 0.00 | 0.00 | 0.00 | 30 | 1007.3 |
| 20260508204054 | 58 | 91 | 2.0 | 2.0 | 0.00 | 0.00 | 0.00 | 32 | 1007.2 |
| 20260508203551 | 58 | 280 | 4.0 | 4.0 | 0.00 | 0.00 | 0.00 | 30 | 1007.3 |
| 20260508203047 | 58 | 278 | 4.0 | 6.0 | 0.00 | 0.00 | 0.00 | 31 | 1007.3 |
| 20260508202543 | 58 | 297 | 4.0 | 7.0 | 0.00 | 0.00 | 0.00 | 31 | 1007.3 |
| 20260508202041 | 58 | 247 | 4.0 | 6.0 | 0.00 | 0.00 | 0.00 | 30 | 1007.2 |
| 20260508201537 | 59 | 265 | 4.0 | 7.0 | 0.00 | 0.00 | 0.00 | 29 | 1007.2 |
| 20260508201034 | 59 | 227 | 2.0 | 6.0 | 0.00 | 0.00 | 0.00 | 29 | 1006.9 |
| 20260508200531 | 59 | 229 | 4.0 | 9.0 | 0.00 | 0.00 | 0.00 | 29 | 1007.2 |
| 20260508200027 | 59 | 274 | 3.0 | 7.0 | 0.00 | 0.00 | 0.00 | 30 | 1007.1 |
| 20260508195524 | 59 | 200 | 3.0 | 7.0 | 0.00 | 0.00 | 0.00 | 30 | 1007.2 |
| 20260508195020 | 59 | 233 | 2.0 | 4.0 | 0.00 | 0.00 | 0.00 | 29 | 1007.1 |
| 20260508194517 | 58 | 198 | 1.0 | 4.0 | 0.00 | 0.00 | 0.00 | 30 | 1007.2 |
| 20260508194014 | 59 | 268 | 5.0 | 9.0 | 0.00 | 0.00 | 0.00 | 29 | 1007.2 |
| 20260508193510 | 58 | 313 | 5.0 | 9.0 | 0.00 | 0.00 | 0.00 | 30 | 1007.2 |
| 20260508193007 | 58 | 274 | 8.0 | 10.0 | 0.00 | 0.00 | 0.00 | 30 | 1007.1 |
| 20260508192504 | 59 | 25 | 2.0 | 9.0 | 0.00 | 0.00 | 0.00 | 29 | 1007.0 |
| 20260508192001 | 58 | 285 | 6.0 | 8.0 | 0.00 | 0.00 | 0.00 | 29 | 1007.0 |
| 20260508191458 | 58 | 317 | 4.0 | 6.0 | 0.00 | 0.00 | 0.00 | 30 | 1007.2 |
| 20260508190954 | 58 | 317 | 2.0 | 6.0 | 0.00 | 0.00 | 0.00 | 29 | 1007.2 |
| 20260508190452 | 59 | 279 | 6.0 | 8.0 | 0.00 | 0.00 | 0.00 | 30 | 1007.3 |
| 20260508185948 | 59 | 247 | 4.0 | 7.0 | 0.00 | 0.00 | 0.00 | 30 | 1007.2 |
| 20260508185446 | 59 | 294 | 4.0 | 14.0 | 0.00 | 0.00 | 0.00 | 30 | 1007.2 |
| 20260508184943 | 59 | 235 | 4.0 | 6.0 | 0.00 | 0.00 | 0.00 | 29 | 1007.2 |
| 20260508184440 | 59 | 308 | 12.0 | 15.0 | 0.00 | 0.00 | 0.00 | 29 | 1007.4 |
| 20260508183937 | 59 | 297 | 4.0 | 16.0 | 0.00 | 0.00 | 0.00 | 29 | 1007.5 |
| 20260508183433 | 59 | 175 | 4.0 | 7.0 | 0.00 | 0.00 | 0.00 | 29 | 1007.2 |
| 20260508182928 | 59 | 204 | 4.0 | 6.0 | 0.00 | 0.00 | 0.00 | 29 | 1007.4 |
| 20260508182426 | 59 | 269 | 6.0 | 8.0 | 0.00 | 0.00 | 0.00 | 29 | 1007.2 |
| 20260508181920 | 59 | 16 | 6.0 | 8.0 | 0.00 | 0.00 | 0.00 | 29 | 1007.3 |
| 20260508181417 | 59 | 69 | 1.0 | 9.0 | 0.00 | 0.00 | 0.00 | 29 | 1007.2 |
| 20260508180915 | 59 | 310 | 9.0 | 13.0 | 0.00 | 0.00 | 0.00 | 28 | 1007.2 |
| 20260508180411 | 59 | 284 | 4.0 | 10.0 | 0.00 | 0.00 | 0.00 | 30 | 1007.2 |
| 20260508175907 | 59 | 290 | 6.0 | 14.0 | 0.00 | 0.00 | 0.00 | 28 | 1007.2 |
| 20260508175404 | 58 | 250 | 9.0 | 10.0 | 0.00 | 0.00 | 0.00 | 30 | 1007.3 |
| 20260508174902 | 58 | 307 | 3.0 | 9.0 | 0.00 | 0.00 | 0.00 | 29 | 1007.1 |
| 20260508174359 | 59 | 185 | 4.0 | 8.0 | 0.00 | 0.00 | 0.00 | 28 | 1007.3 |
| 20260508173856 | 59 | 224 | 2.0 | 7.0 | 0.00 | 0.00 | 0.00 | 30 | 1006.9 |
| 20260508173353 | 60 | 356 | 3.0 | 8.0 | 0.00 | 0.00 | 0.00 | 29 | 1007.1 |
| 20260508172849 | 59 | 72 | 3.0 | 6.0 | 0.00 | 0.00 | 0.00 | 30 | 1007.2 |
| 20260508172347 | 60 | 222 | 6.0 | 11.0 | 0.00 | 0.00 | 0.00 | 28 | 1007.3 |
| 20260508171842 | 60 | 11 | 3.0 | 11.0 | 0.00 | 0.00 | 0.00 | 30 | 1007.2 |
| 20260508171339 | 60 | 276 | 3.0 | 10.0 | 0.00 | 0.00 | 0.00 | 30 | 1007.1 |
| 20260508170836 | 60 | 229 | 4.0 | 9.0 | 0.00 | 0.00 | 0.00 | 31 | 1007.2 |
| 20260508170334 | 58 | 224 | 3.0 | 4.0 | 0.00 | 0.00 | 0.00 | 32 | 1007.1 |
| 20260508165830 | 58 | 37 | 3.0 | 4.0 | 0.00 | 0.00 | 0.00 | 31 | 1007.1 |
| 20260508165327 | 58 | 11 | 4.0 | 14.0 | 0.00 | 0.00 | 0.00 | 32 | 1007.2 |
| 20260508164823 | 58 | 188 | 5.0 | 9.0 | 0.00 | 0.00 | 0.00 | 33 | 1007.1 |
| 20260508164320 | 58 | 226 | 2.0 | 4.0 | 0.00 | 0.00 | 0.00 | 33 | 1007.3 |
| 20260508163818 | 59 | 278 | 4.0 | 9.0 | 0.00 | 0.00 | 0.00 | 31 | 1007.1 |
| 20260508163316 | 59 | 211 | 2.0 | 6.0 | 0.00 | 0.00 | 0.00 | 32 | 1007.2 |
| 20260508162811 | 59 | 43 | 2.0 | 6.0 | 0.00 | 0.00 | 0.00 | 32 | 1007.2 |
| 20260508162308 | 59 | 286 | 3.0 | 8.0 | 0.00 | 0.00 | 0.00 | 31 | 1007.0 |
| 20260508161806 | 59 | 301 | 4.0 | 6.0 | 0.00 | 0.00 | 0.00 | 34 | 1007.0 |
| 20260508161302 | 58 | 237 | 1.0 | 8.0 | 0.00 | 0.00 | 0.00 | 35 | 1007.2 |
| 20260508160800 | 59 | 276 | 6.0 | 11.0 | 0.00 | 0.00 | 0.00 | 32 | 1007.3 |
| 20260508160259 | 57 | 129 | 4.0 | 6.0 | 0.00 | 0.00 | 0.00 | 34 | 1007.1 |
| 20260508155754 | 57 | 183 | 4.0 | 8.0 | 0.00 | 0.00 | 0.00 | 35 | 1007.1 |
| 20260508155252 | 56 | 218 | 4.0 | 7.0 | 0.00 | 0.00 | 0.00 | 36 | 1007.2 |
| 20260508154748 | 55 | 338 | 3.0 | 10.0 | 0.00 | 0.00 | 0.00 | 35 | 1007.4 |
| 20260508154246 | 55 | 349 | 4.0 | 8.0 | 0.00 | 0.00 | 0.00 | 34 | 1007.6 |
| 20260508153742 | 55 | 250 | 4.0 | 6.0 | 0.00 | 0.00 | 0.00 | 36 | 1007.7 |
| 20260508153240 | 56 | 280 | 7.0 | 10.0 | 0.00 | 0.00 | 0.00 | 35 | 1007.8 |
| 20260508152736 | 57 | 283 | 6.0 | 10.0 | 0.00 | 0.00 | 0.00 | 34 | 1007.8 |
| 20260508152232 | 58 | 354 | 8.0 | 10.0 | 0.00 | 0.00 | 0.00 | 33 | 1007.9 |
| 20260508151728 | 57 | 296 | 4.0 | 8.0 | 0.00 | 0.00 | 0.00 | 33 | 1007.5 |
| 20260508151225 | 57 | 341 | 5.0 | 6.0 | 0.00 | 0.00 | 0.00 | 34 | 1007.7 |
| 20260508150722 | 58 | 173 | 1.0 | 8.0 | 0.00 | 0.00 | 0.00 | 32 | 1007.4 |
| 20260508150219 | 57 | 228 | 3.0 | 6.0 | 0.00 | 0.00 | 0.00 | 33 | 1007.5 |
| 20260508145715 | 58 | 307 | 7.0 | 13.0 | 0.00 | 0.00 | 0.00 | 32 | 1007.5 |
| 20260508145211 | 56 | 226 | 3.0 | 8.0 | 0.00 | 0.00 | 0.00 | 35 | 1007.7 |
| 20260508144708 | 57 | 268 | 6.0 | 9.0 | 0.00 | 0.00 | 0.00 | 33 | 1007.7 |
| 20260508144206 | 57 | 316 | 5.0 | 8.0 | 0.00 | 0.00 | 0.00 | 35 | 1007.6 |
| 20260508143703 | 56 | 261 | 11.0 | 15.0 | 0.00 | 0.00 | 0.00 | 35 | 1007.7 |
| 20260508143200 | 55 | 89 | 3.0 | 7.0 | 0.00 | 0.00 | 0.00 | 37 | 1008.0 |
| 20260508142656 | 54 | 50 | 2.0 | 7.0 | 0.00 | 0.00 | 0.00 | 38 | 1008.1 |
| 20260508142154 | 54 | 275 | 4.0 | 10.0 | 0.00 | 0.00 | 0.00 | 36 | 1008.0 |
| 20260508141650 | 54 | 343 | 5.0 | 14.0 | 0.00 | 0.00 | 0.00 | 36 | 1008.0 |
| 20260508141148 | 55 | 315 | 5.0 | 8.0 | 0.00 | 0.00 | 0.00 | 35 | 1008.2 |
| 20260508140645 | 55 | 354 | 5.0 | 9.0 | 0.00 | 0.00 | 0.00 | 35 | 1008.0 |
| 20260508140142 | 54 | 26 | 2.0 | 7.0 | 0.00 | 0.00 | 0.00 | 37 | 1007.9 |
| 20260508135637 | 54 | 185 | 6.0 | 10.0 | 0.00 | 0.00 | 0.00 | 36 | 1008.2 |
| 20260508135133 | 55 | 328 | 6.0 | 11.0 | 0.00 | 0.00 | 0.00 | 35 | 1008.2 |
| 20260508134630 | 55 | 154 | 3.0 | 8.0 | 0.00 | 0.00 | 0.00 | 36 | 1008.2 |
| 20260508134127 | 55 | 348 | 3.0 | 7.0 | 0.00 | 0.00 | 0.00 | 38 | 1008.3 |
| 20260508133624 | 55 | 287 | 6.0 | 10.0 | 0.00 | 0.00 | 0.00 | 37 | 1008.2 |
| 20260508133121 | 53 | 275 | 2.0 | 7.0 | 0.00 | 0.00 | 0.00 | 39 | 1008.2 |
| 20260508132619 | 55 | 262 | 6.0 | 9.0 | 0.00 | 0.00 | 0.00 | 37 | 1008.2 |
| 20260508132115 | 55 | 277 | 5.0 | 8.0 | 0.00 | 0.00 | 0.00 | 37 | 1008.4 |
| 20260508131611 | 55 | 231 | 7.0 | 9.0 | 0.00 | 0.00 | 0.00 | 37 | 1008.4 |
| 20260508131108 | 55 | 295 | 5.0 | 9.0 | 0.00 | 0.00 | 0.00 | 37 | 1008.2 |
| 20260508130605 | 54 | 295 | 3.0 | 6.0 | 0.00 | 0.00 | 0.00 | 40 | 1008.3 |
| 20260508125556 | 53 | 248 | 4.0 | 7.0 | 0.00 | 0.00 | 0.00 | 38 | 1008.3 |
| 20260508125055 | 53 | 305 | 5.0 | 7.0 | 0.00 | 0.00 | 0.00 | 40 | 1008.2 |
| 20260508124553 | 52 | 335 | 2.0 | 4.0 | 0.00 | 0.00 | 0.00 | 41 | 1008.4 |
| 20260508124049 | 53 | 269 | 5.0 | 10.0 | 0.00 | 0.00 | 0.00 | 41 | 1008.3 |
| 20260508123548 | 52 | 271 | 5.0 | 7.0 | 0.00 | 0.00 | 0.00 | 43 | 1008.2 |
| 20260508123044 | 51 | 124 | 1.0 | 7.0 | 0.00 | 0.00 | 0.00 | 44 | 1008.2 |
| 20260508122541 | 51 | 27 | 3.0 | 4.0 | 0.00 | 0.00 | 0.00 | 44 | 1008.3 |
| 20260508122038 | 51 | 277 | 2.0 | 7.0 | 0.00 | 0.00 | 0.00 | 45 | 1008.3 |
| 20260508121536 | 50 | 205 | 2.0 | 3.0 | 0.00 | 0.00 | 0.00 | 47 | 1008.5 |
| 20260508121034 | 50 | 222 | 4.0 | 7.0 | 0.00 | 0.00 | 0.00 | 48 | 1008.5 |
| 20260508120531 | 49 | 9 | 2.0 | 8.0 | 0.00 | 0.00 | 0.00 | 48 | 1008.4 |
| 20260508120029 | 49 | 353 | 4.0 | 8.0 | 0.00 | 0.00 | 0.00 | 47 | 1008.3 |
| 20260508115526 | 49 | 267 | 3.0 | 8.0 | 0.00 | 0.00 | 0.00 | 48 | 1008.4 |
| 20260508115023 | 48 | 266 | 4.0 | 6.0 | 0.00 | 0.00 | 0.00 | 51 | 1008.3 |
| 20260508114520 | 48 | 132 | 0.0 | 3.0 | 0.00 | 0.00 | 0.00 | 53 | 1008.4 |
| 20260508114016 | 47 | 12 | 1.0 | 3.0 | 0.00 | 0.00 | 0.00 | 54 | 1008.3 |
| 20260508113514 | 46 | 157 | 1.0 | 2.0 | 0.00 | 0.00 | 0.00 | 56 | 1008.2 |
| 20260508113011 | 45 | 143 | 1.0 | 2.0 | 0.00 | 0.00 | 0.00 | 59 | 1008.2 |
| 20260508112508 | 44 | 113 | 1.0 | 2.0 | 0.00 | 0.00 | 0.00 | 60 | 1008.4 |
| 20260508112005 | 43 | 166 | 0.0 | 2.0 | 0.00 | 0.00 | 0.00 | 64 | 1008.4 |
| 20260508111502 | 43 | 167 | 0.0 | 1.0 | 0.00 | 0.00 | 0.00 | 65 | 1008.4 |
| 20260508110959 | 42 | 119 | 0.0 | 0.0 | 0.00 | 0.00 | 0.00 | 67 | 1008.4 |
| 20260508110456 | 41 | 169 | 0.0 | 0.0 | 0.00 | 0.00 | 0.00 | 69 | 1008.4 |
| 20260508105956 | 40 | 116 | 0.0 | 0.0 | 0.00 | 0.00 | 0.00 | 76 | 1008.3 |
| 20260508105452 | 38 | 149 | 0.0 | 0.0 | 0.00 | 0.00 | 0.00 | 79 | 1008.3 |
| 20260508104950 | 38 | 137 | 0.0 | 0.0 | 0.00 | 0.00 | 0.00 | 81 | 1008.2 |
| 20260508104447 | 37 | 119 | 0.0 | 0.0 | 0.00 | 0.00 | 0.00 | 82 | 1008.1 |
| 20260508103943 | 37 | 92 | 0.0 | 0.0 | 0.00 | 0.00 | 0.00 | 83 | 1008.2 |
| 20260508103441 | 36 | 216 | 1.0 | 1.0 | 0.00 | 0.00 | 0.00 | 83 | 1007.9 |
| 20260508102937 | 36 | 130 | 0.0 | 0.0 | 0.00 | 0.00 | 0.00 | 84 | 1008.1 |
| 20260508102436 | 36 | 110 | 0.0 | 0.0 | 0.00 | 0.00 | 0.00 | 84 | 1008.0 |
| 20260508101933 | 36 | 118 | 0.0 | 0.0 | 0.00 | 0.00 | 0.00 | 84 | 1007.8 |
| 20260508101430 | 35 | 124 | 0.0 | 0.0 | 0.00 | 0.00 | 0.00 | 85 | 1007.7 |
| 20260508100927 | 35 | 135 | 0.0 | 0.0 | 0.00 | 0.00 | 0.00 | 85 | 1007.8 |
| 20260508100426 | 35 | 124 | 0.0 | 0.0 | 0.00 | 0.00 | 0.00 | 86 | 1007.7 |
| 20260508095922 | 35 | 122 | 0.0 | 0.0 | 0.00 | 0.00 | 0.00 | 86 | 1007.4 |
| 20260508095420 | 35 | 118 | 0.0 | 0.0 | 0.00 | 0.00 | 0.00 | 86 | 1007.5 |
| 20260508094916 | 34 | 122 | 0.0 | 0.0 | 0.00 | 0.00 | 0.00 | 86 | 1007.5 |
| 20260508094413 | 34 | 123 | 0.0 | 0.0 | 0.00 | 0.00 | 0.00 | 86 | 1007.4 |
| 20260508093910 | 34 | 128 | 0.0 | 0.0 | 0.00 | 0.00 | 0.00 | 86 | 1007.4 |
| 20260508093408 | 34 | 119 | 0.0 | 0.0 | 0.00 | 0.00 | 0.00 | 86 | 1007.3 |
| 20260508092905 | 34 | 114 | 0.0 | 0.0 | 0.00 | 0.00 | 0.00 | 86 | 1007.5 |
| 20260508092403 | 34 | 114 | 0.0 | 0.0 | 0.00 | 0.00 | 0.00 | 85 | 1007.3 |
| 20260508091901 | 34 | 124 | 0.0 | 0.0 | 0.00 | 0.00 | 0.00 | 85 | 1007.4 |
| 20260508091357 | 34 | 124 | 0.0 | 0.0 | 0.00 | 0.00 | 0.00 | 85 | 1007.4 |
| 20260508090855 | 34 | 106 | 0.0 | 0.0 | 0.00 | 0.00 | 0.00 | 85 | 1007.3 |
| 20260508090353 | 34 | 114 | 0.0 | 0.0 | 0.00 | 0.00 | 0.00 | 85 | 1007.2 |
| 20260508085848 | 34 | 127 | 0.0 | 0.0 | 0.00 | 0.00 | 0.00 | 85 | 1007.3 |
| 20260508085345 | 35 | 114 | 0.0 | 0.0 | 0.00 | 0.00 | 0.00 | 85 | 1007.2 |
| 20260508084842 | 35 | 98 | 0.0 | 0.0 | 0.00 | 0.00 | 0.00 | 85 | 1007.2 |
| 20260508084339 | 35 | 111 | 0.0 | 0.0 | 0.00 | 0.00 | 0.00 | 84 | 1007.3 |
| 20260508083837 | 35 | 113 | 0.0 | 0.0 | 0.00 | 0.00 | 0.00 | 84 | 1007.4 |
| 20260508083334 | 35 | 111 | 0.0 | 0.0 | 0.00 | 0.00 | 0.00 | 84 | 1007.4 |
| 20260508082833 | 35 | 119 | 0.0 | 0.0 | 0.00 | 0.00 | 0.00 | 84 | 1007.3 |
| 20260508082331 | 34 | 107 | 0.0 | 0.0 | 0.00 | 0.00 | 0.00 | 84 | 1007.1 |
| 20260508081828 | 35 | 133 | 0.0 | 0.0 | 0.00 | 0.00 | 0.00 | 83 | 1007.1 |
| 20260508081325 | 35 | 127 | 0.0 | 0.0 | 0.00 | 0.00 | 0.00 | 83 | 1007.1 |
| 20260508080822 | 35 | 131 | 0.0 | 0.0 | 0.00 | 0.00 | 0.00 | 83 | 1007.0 |
| 20260508080320 | 35 | 123 | 0.0 | 0.0 | 0.00 | 0.00 | 0.00 | 83 | 1006.9 |
| 20260508075816 | 35 | 123 | 0.0 | 0.0 | 0.00 | 0.00 | 0.00 | 83 | 1006.7 |
| 20260508075313 | 35 | 127 | 0.0 | 0.0 | 0.00 | 0.00 | 0.00 | 82 | 1006.6 |
| 20260508074811 | 35 | 114 | 0.0 | 0.0 | 0.00 | 0.00 | 0.00 | 82 | 1006.7 |
| 20260508074308 | 35 | 114 | 0.0 | 0.0 | 0.00 | 0.00 | 0.00 | 82 | 1006.5 |
| 20260508073805 | 36 | 114 | 0.0 | 0.0 | 0.00 | 0.00 | 0.00 | 81 | 1006.4 |
| 20260508073303 | 36 | 118 | 0.0 | 0.0 | 0.00 | 0.00 | 0.00 | 81 | 1006.5 |
| 20260508072759 | 36 | 129 | 0.0 | 0.0 | 0.00 | 0.00 | 0.00 | 81 | 1006.4 |
| 20260508072256 | 36 | 122 | 0.0 | 0.0 | 0.00 | 0.00 | 0.00 | 80 | 1006.3 |
| 20260508071753 | 36 | 116 | 0.0 | 0.0 | 0.00 | 0.00 | 0.00 | 80 | 1006.4 |
| 20260508071252 | 36 | 116 | 0.0 | 0.0 | 0.00 | 0.00 | 0.00 | 79 | 1006.5 |
| 20260508070748 | 37 | 120 | 0.0 | 0.0 | 0.00 | 0.00 | 0.00 | 78 | 1006.4 |
| 20260508070247 | 37 | 120 | 0.0 | 0.0 | 0.00 | 0.00 | 0.00 | 78 | 1006.5 |
| 20260508065744 | 37 | 124 | 0.0 | 0.0 | 0.00 | 0.00 | 0.00 | 78 | 1006.5 |
| 20260508065242 | 37 | 118 | 0.0 | 0.0 | 0.00 | 0.00 | 0.00 | 78 | 1006.5 |
| 20260508064740 | 37 | 140 | 0.0 | 0.0 | 0.00 | 0.00 | 0.00 | 78 | 1006.5 |
| 20260508064238 | 37 | 120 | 0.0 | 0.0 | 0.00 | 0.00 | 0.00 | 78 | 1006.3 |
| 20260508063735 | 37 | 127 | 0.0 | 0.0 | 0.00 | 0.00 | 0.00 | 78 | 1006.4 |
| 20260508063232 | 37 | 128 | 0.0 | 0.0 | 0.00 | 0.00 | 0.00 | 77 | 1006.3 |
| 20260508062729 | 38 | 128 | 0.0 | 0.0 | 0.00 | 0.00 | 0.00 | 76 | 1006.5 |
| 20260508062227 | 38 | 128 | 0.0 | 0.0 | 0.00 | 0.00 | 0.00 | 76 | 1006.5 |
| 20260508061724 | 38 | 128 | 0.0 | 0.0 | 0.00 | 0.00 | 0.00 | 76 | 1006.4 |
| 20260508061221 | 38 | 126 | 0.0 | 0.0 | 0.00 | 0.00 | 0.00 | 76 | 1006.4 |
| 20260508060717 | 38 | 126 | 0.0 | 0.0 | 0.00 | 0.00 | 0.00 | 75 | 1006.7 |
| 20260508060215 | 38 | 126 | 0.0 | 0.0 | 0.00 | 0.00 | 0.00 | 75 | 1006.5 |
| 20260508055710 | 39 | 146 | 0.0 | 0.0 | 0.00 | 0.00 | 0.00 | 74 | 1006.6 |